User: anonymous   Login
Location: Unspecified
(0.0000°N, 0.0000°E)
Time: 08:06:28
(UTC+01:00)
Language:

Cosmos 1295 Rocket - Orbit

View from above orbital plane
View from above orbital plane
View from above satellite
View from above satellite

Ground track
Ground track

The orbit data is extracted from the following two-line orbital elements,

1 12682U 81077B   17346.84384173  .00000008  00000-0 -72459-5 0  9992
2 12682  82.9182 242.4999 0033317 201.0319 158.9471 13.78534928827476
Epoch (UTC): 12 December 2017 20:15:07
Eccentricity: 0.0033317
inclination: 82.9182°
perigee height: 944 km
apogee height: 993 km
right ascension of ascending node: 242.4999°
argument of perigee: 201.0319°
revolutions per day: 13.78534928
mean anomaly at epoch: 158.9471°
orbit number at epoch: 82747

The dashed part of the orbit path shows where the satellite is in the earth's shadow,  

DLR